Phoenix Deer Valley, AZ

3:48 AM MST on December 16, 2019 (GMT -0700)
Phoenix-Deer Valley Municipal

Weather History for KDVT - September, 2019

Change the Weather History Date:

Sunday, September 15, 2019

  Actual Average Record
Temperature  
Mean Temperature 84 °F -  
Max Temperature 93 °F 95 °F 106 °F (2000)
Min Temperature 75 °F 74 °F 64 °F (1996)
Cooling Degree Days 19    
Growing Degree Days 34 (Base 50)    
Moisture  
Dew Point 58 °F    
Average Humidity 40    
Maximum Humidity 58    
Minimum Humidity 29    
Precipitation  
Precipitation 0.00 in - - ()
Sea Level Pressure  
Sea Level Pressure 29.83 in    
Wind  
Wind Speed 5 mph ()    
Max Wind Speed 9 mph    
Max Gust Speed 17 mph    
Visibility 10.0 miles    
Events      
Averages and records for this station are not official NWS values.
T = Trace of Precipitation, MM = Missing Value Source: Averaged Metar Reports

Daily Weather History Graph

Daily Weather History Graph

Search for Another Location

Airport or City:

Astronomy

Sep. 15, 2019 Rise Set
Actual Time 6:11 AM MST 6:34 PM MST
Civil Twilight 5:46 AM MST 6:59 PM MST
Nautical Twilight 5:17 AM MST 7:29 PM MST
Astronomical Twilight 4:47 AM MST 7:58 PM MST
Moon 7:47 PM MST (9/15) 7:23 AM MST (9/15)
Length of Visible Light 13h 13m
Length of Day
12h 23m
Full, 98% of the Moon is Illuminated
Sep 15
Full
Sep 21
Last Quarter
Sep 28
New
Oct 5
First Quarter
Oct 13
Full

Hourly Weather History & Observations

Time (MST) Temp. Heat Index Dew Point Humidity Pressure Visibility Wind Dir Wind Speed Gust Speed Precip Events Conditions
12:53 AM 80.1 °F 80.7 °F 59.0 °F 48% 29.87 in 10.0 mi ESE 8.1 mph - N/A   Clear
1:53 AM 81.0 °F 81.1 °F 57.9 °F 45% 29.88 in 10.0 mi Calm Calm - N/A   Clear
2:53 AM 77.0 °F - 60.1 °F 56% 29.88 in 10.0 mi NNE 3.5 mph - N/A   Clear
3:53 AM 75.9 °F - 60.1 °F 58% 29.87 in 10.0 mi ENE 3.5 mph - N/A   Clear
4:53 AM 75.9 °F - 60.1 °F 58% 29.86 in 10.0 mi East 5.8 mph - N/A   Clear
5:53 AM 78.1 °F - 57.9 °F 50% 29.87 in 10.0 mi Variable 6.9 mph - N/A   Clear
6:53 AM 78.1 °F - 57.9 °F 50% 29.88 in 10.0 mi ENE 5.8 mph - N/A   Clear
7:53 AM 81.0 °F 81.3 °F 59.0 °F 47% 29.90 in 10.0 mi East 3.5 mph - N/A   Clear
8:53 AM 84.0 °F 83.8 °F 59.0 °F 43% 29.91 in 10.0 mi SE 8.1 mph - N/A   Clear
9:53 AM 86.0 °F 85.4 °F 59.0 °F 40% 29.91 in 10.0 mi SSE 9.2 mph - N/A   Clear
10:53 AM 88.0 °F 87.1 °F 59.0 °F 37% 29.89 in 10.0 mi SE 9.2 mph 13.8 mph N/A   Clear
11:53 AM 89.1 °F 88.2 °F 59.0 °F 36% 29.88 in 10.0 mi Variable 5.8 mph - N/A   Clear
12:53 PM 90.0 °F 89.1 °F 59.0 °F 35% 29.85 in 10.0 mi East 5.8 mph - N/A   Clear
1:53 PM 91.9 °F 91.2 °F 59.0 °F 33% 29.81 in 10.0 mi SW 5.8 mph - N/A   Clear
2:53 PM 93.0 °F 92.0 °F 57.9 °F 31% 29.78 in 10.0 mi Variable 5.8 mph - N/A   Clear
3:53 PM 93.0 °F 91.7 °F 57.0 °F 30% 29.76 in 10.0 mi Variable 3.5 mph - N/A   Clear
4:53 PM 93.9 °F 92.6 °F 57.0 °F 29% 29.75 in 10.0 mi SW 8.1 mph 17.3 mph N/A   Clear
5:53 PM 93.9 °F 92.6 °F 57.0 °F 29% 29.74 in 10.0 mi West 5.8 mph - N/A   Clear
6:53 PM 91.9 °F 90.6 °F 57.0 °F 31% 29.76 in 10.0 mi SSW 5.8 mph - N/A   Clear
7:53 PM 91.0 °F 89.7 °F 57.0 °F 32% 29.77 in 10.0 mi Calm Calm - N/A   Clear
8:53 PM 89.1 °F 87.7 °F 57.0 °F 34% 29.78 in 10.0 mi East 4.6 mph - N/A   Clear
9:53 PM 88.0 °F 86.5 °F 55.9 °F 34% 29.79 in 10.0 mi East 6.9 mph - N/A   Clear
10:53 PM 84.9 °F 83.9 °F 57.0 °F 38% 29.79 in 10.0 mi East 6.9 mph - N/A   Clear
11:53 PM 84.0 °F 83.3 °F 57.0 °F 40% 29.80 in 10.0 mi ENE 6.9 mph - N/A   Clear